TITAN 3C TRANSTAGE DEB, 35503

Orbit data source: Space-Track

TITAN 3C TRANSTAGE DEB, 35503 is space debris in HEO originally from a launch on Tue, 21 Dec 1965 UTC launched from the Air Force Eastern Test Range (AFETR). Debris objects in space refer to the collection of defunct objects orbiting the Earth. Examples of debris include non-operational satellites, rocket bodies, and fragments generated from explosions, collisions, or faulty payload assembly.

Loading next visibility...
Identifier
35503, 1965-108DJ
Orbit
HEO
Country
Flag of USUS
Related business
Manufacturer
Unknown
Mission
Spacecraft
Bus & Motor
Unknown
Mass
Unknown
Launch date (UTC)
1965-12-21 (60 years ago)
Launch vehicle
Unknown
Launch site
Air Force Eastern Test Range (AFETR)
Object type
Payload
Rocket body
Debris
Shape & HBR
Unknown shape, 1.1 m
Radar Cross Section
Small (<0.1 m²)

Expand to show TLE details & history
Last TLE update: 6 months ago

TLE from 6 months ago
0 TITAN 3C TRANSTAGE DEB
1 35503U 65108DJ  25172.37660848 -.00000230  00000-0 -38369-2 0  9993
2 35503  26.5029  76.6644 6767410 234.9359 324.3212  2.60229465197821
Epoch: 2025-06-21T09:02Z
TLE epoch observation values (Epoch: 2025-06-21T09:02:18.972Z)
Latitude
23.54824°
Longitude
150.61338°
Altitude
11,403.24 km
Speed
5.195 km/s
True Right ascension
13h 04m 02s
True Declination
23° 29' 52"
Sunlit
Object was in daylight at epoch
Visualization orbit readout
Latitude
Unknown
Longitude
Unknown
Altitude
Unknown
Speed
Unknown
Apparent Right ascension
Unknown
Apparent Declination
Unknown
Sunlit
N/A
Visualization observer readout
Local Sidereal Time
03:31:13
Azimuth
Unknown
Elevation
Unknown
Doppler factor
Unknown
Orbital elements
Apogee altitude
31,064.338 km
Perigee altitude
840.4 km
Semi-major axis
22,330.506 km
Eccentricity
0.67674
Inclination
26.5029°
RAAN
76.6644°
Arg. of periapsis
234.9359°
True anomaly
241.64515°
Mean anomaly
324.3212°
Eccentric anomaly
287.30115°
Mean motion
0.65042 °/min
Orbital period
553.49 mins
BSTAR
-0.0038369
Loading maneuver chart data...
Computing Atmospheric mass density...

Documentation

Showing up to 5 results
|